Back to catalog

THORAD AGENA D DEB

AliveLEO
NORAD 4734·DEBRIS·🇺🇸 United States

Launched Apr 8, 1970 from Vandenberg Space Force Base

Loading…

Next Passes (next 24 hours)

TLE

FreshSource: Space-Track

Epoch: Sep 14, 2026, 05:09 UTC

1 04734U 70025CH  26257.21485937  .00000123  00000-0  14542-3 0  9998
2 04734 100.1015 349.1751 0082963 129.2770 231.5780 13.86490948834906

Track THORAD AGENA D DEB in real time with AllMySat

Download on the App Store